Вернуться в каталог

COSMOS 1275 DEB

АктивенPO
NORAD 12740·DEBRIS·🇷🇺 Russia

Запущен Jun 4, 1981 с Plesetsk Cosmodrome

Loading…

Ближайшие Пролёты (ближайшие 24 часа)

TLE

СвежийSource: Space-Track

Эпоха: Sep 14, 2026, 09:19 UTC

1 12740U 81053CH  26257.38823843  .00002504  00000-0  75909-3 0  9996
2 12740  82.8353 126.6595 0010497 206.5069 327.6629 14.41930626310171

Отслеживайте COSMOS 1275 DEB в реальном времени с AllMySat

Download on the App Store